Date,TemperatureHighF,TemperatureAvgF,TemperatureLowF,DewpointHighF,DewpointAvgF,DewpointLowF,HumidityHigh,HumidityAvg,HumidityLow,PressureMaxIn,PressureMinIn,WindSpeedMaxMPH,WindSpeedAvgMPH,GustSpeedMaxMPH,PrecipitationSumIn
2013-6-1,90.5,75.1,59.1,75.5,68.1,58.5,100,81,53,29.99,29.87,8,0,8,0.00
2013-6-2,87.8,74.8,63.6,76.3,69.7,62.9,99,86,61,29.89,29.70,7,0,8,0.01
2013-6-3,78.2,68.6,56.5,70.5,65.1,52.2,99,89,67,29.87,29.76,6,0,6,0.99
2013-6-4,74.8,59.6,47.2,55.5,48.6,43.7,94,69,38,30.10,29.87,10,0,10,0.00
2013-6-5,75.5,60.2,44.9,57.5,50.2,44.1,99,73,40,30.20,30.09,6,0,6,0.00
2013-6-6,71.5,58.5,47.4,61.2,53.8,46.3,98,85,63,30.16,30.03,7,0,7,0.15
2013-6-7,60.4,57.4,54.6,59.8,56.7,54.0,98,98,97,30.04,29.68,8,0,8,1.50
2013-6-8,77.0,63.3,53.3,67.9,59.7,52.8,100,89,68,30.04,29.61,8,0,10,0.51
2013-6-9,79.3,65.7,51.9,67.3,59.0,51.4,100,81,50,30.17,30.04,6,0,6,0.00
2013-6-10,71.8,61.9,56.1,65.8,60.1,55.3,98,94,77,30.17,29.88,8,0,9,1.12
2013-6-11,75.1,64.6,59.1,71.9,63.1,56.9,99,95,82,29.88,29.55,8,0,8,0.27
2013-6-12,73.3,63.6,53.9,61.3,56.7,52.6,97,80,54,29.84,29.64,12,0,13,0.00
2013-6-13,57.4,54.6,49.9,56.7,53.9,49.1,99,98,95,29.83,29.57,12,0,12,1.39
2013-6-14,74.5,58.5,50.4,64.7,55.8,50.1,99,91,63,29.85,29.58,5,0,5,0.47
2013-6-15,79.8,63.3,49.1,63.6,54.0,48.7,100,77,38,29.98,29.85,8,0,9,0.01
2013-6-16,77.1,63.4,49.5,66.2,58.5,49.0,99,85,57,29.98,29.73,1,0,7,0.00
2013-6-17,86.4,68.8,55.2,69.2,61.9,54.7,99,82,47,29.91,29.79,1,0,8,0.01
2013-6-18,82.6,65.3,56.4,69.7,62.4,55.8,99,92,63,29.90,29.81,2,0,6,0.54
2013-6-19,75.5,65.0,51.5,60.1,53.5,45.5,99,69,40,30.16,29.89,8,0,8,0.01
2013-6-20,80.1,63.4,45.9,63.1,54.5,45.1,99,76,42,30.25,30.16,6,0,6,0.00
2013-6-21,83.0,68.1,51.9,70.5,61.4,51.0,99,81,56,30.27,30.19,7,0,8,0.00
2013-6-22,85.3,69.9,54.8,68.9,62.0,54.0,99,78,50,30.24,30.10,9,0,9,0.00
2013-6-23,90.6,74.2,58.9,75.3,66.8,57.8,97,80,49,30.16,30.02,8,0,8,0.00
2013-6-24,92.5,75.6,65.8,77.9,69.8,63.4,99,85,53,30.05,29.91,4,0,11,0.39
2013-6-25,90.0,74.4,63.4,79.1,70.5,62.8,100,89,60,29.98,29.75,6,0,6,0.19
2013-6-26,81.7,73.5,67.2,75.6,71.2,66.3,100,93,76,29.82,29.74,7,0,8,0.00
2013-6-27,67.2,65.8,64.1,66.3,65.3,63.7,99,99,97,29.81,29.76,0,0,1,0.00
2013-6-28,83.7,75.0,69.0,75.3,71.7,68.1,99,90,73,29.58,29.44,1,0,11,0.32
2013-6-29,84.5,73.8,64.7,72.8,68.7,64.1,99,85,58,29.69,29.47,1,0,8,0.00
2013-6-30,82.6,73.3,67.9,77.2,71.2,67.0,98,93,81,29.90,29.69,1,0,12,0.00